Weather in Mashezero

Russia / Republic of Karelia     61°37′17″N   34°17′36″E
temp.,
°C
wind,
m/s
gust,
m/s
humid.,
%
clouds,
%
prec.,
mm/h
press.,
hPa
HPBL,
m
3 march, wed
wed300:00−6wnw411905 0.0 1012320
03:00−6w410969 0.0 1012282
06:00−3wnw5109494 0.0 1010515
09:00−3wnw5119297 0.1 1009576
12:00−2w5109291 0.0 1006461
15:00−1wsw6129295 0.3 1003703
18:00−2w51194100 0.4 999952
21:00−1wnw7149399 1.6 9961238
4 march, thu
thu400:00−4wnw6149189 0.1 995787
03:00−4nnw6129094 0.7 997886
06:00−8nnw4109498 0.1 998409
09:00−10nnw379580 0.1 1000209
12:00−6nw249069 0.0 1000329
15:00−5nw358883 0.0 1001724
18:00−8nw2293100 0.1 100138
21:00−10nw269690 0.1 1002148
5 march, fri
fri500:00−12nw249660 0.1 1002101
03:00−12nw369657 0.1 1003152
06:00−12nnw399593 0.1 1005353
09:00−14n499494 0.2 1007397
12:00−11n368511 0.0 1009570
15:00−9nnw358419 0.0 1011740
18:00−11wnw3893100 0.2 1011494
21:00−14nw249682 0.2 101383
6 march, sat
sat600:00−14wnw239747 0.0 101462
03:00−15wnw239762 0.1 101539
06:00−15w239847 0.0 101467
09:00−14w369641 0.0 1013155
12:00−9wsw369015 0.0 1011362
15:00−7sw59887 0.0 1008698
18:00−8ssw5129395 0.1 1003782
21:00−7s6139398 1.0 996985
7 march, sun
sun700:00−6s61494100 1.3 988958
03:00−4s51296100 3.3 983771
06:00−9w61291100 0.8 982678
09:00−12wsw489398 0.8 983488
12:00−10w238899 0.0 986494
15:00−9n3690100 0.1 990616
18:00−10nne61192100 0.6 994789
21:00−12nne61393100 1.2 998865